NOS538 LIRF-EKVG

Flight info

Callsign NOS538
Flight time 3h 34m
Altitude 34000
Route RF792 DCT RF787 DCT RF791 DCT RF702 DCT RF811 DCT GOLPO DCT SUVOK DCT SOSIV DCT AMTEL DCT ILOWE DCT IBRID DCT RQ454 DCT UNIMI DCT MOGTI DCT KPT DCT TEDGO DCT LIRSU DCT TERLA DCT SPY DCT SUM/M079F340 DCT VG984 DCT VG942 DCT VG662 DCT VG974 DCT VG900
Aircraft B738/M-SDE2E3FGHIRWXY/LB1

Departure

Time 2026-05-07 08:18
Airport Rome–Fiumicino Leonardo da Vinci International Airport (LIRF)

Arrival

Time 2026-05-07 11:52
Airport Vágar Airport (EKVG)
Time Latitude Longitude Altitude Speed Heading
2026-05-07 07:31 41.79689 12.25620 19 ft 0 kts 295°
2026-05-07 08:09 41.79684 12.25632 19 ft 2 kts 295°
2026-05-07 08:09 41.79678 12.25651 19 ft 2 kts 295°
2026-05-07 08:09 41.79670 12.25668 19 ft 2 kts 327°
2026-05-07 08:10 41.79655 12.25674 19 ft 2 kts 360°
2026-05-07 08:10 41.79645 12.25672 19 ft 0 kts 22°
2026-05-07 08:10 41.79639 12.25668 19 ft 0 kts 25°
2026-05-07 08:12 41.79660 12.25680 19 ft 6 kts 24°
2026-05-07 08:13 41.79717 12.25715 19 ft 9 kts 25°
2026-05-07 08:13 41.79781 12.25757 19 ft 12 kts 26°
2026-05-07 08:13 41.79862 12.25811 18 ft 13 kts 27°
2026-05-07 08:13 41.79953 12.25874 17 ft 18 kts 27°
2026-05-07 08:14 41.80087 12.25959 16 ft 21 kts 21°
2026-05-07 08:14 41.80224 12.26041 16 ft 20 kts 24°
2026-05-07 08:14 41.80352 12.26120 16 ft 20 kts 25°
2026-05-07 08:14 41.80481 12.26184 16 ft 19 kts 22°
2026-05-07 08:15 41.80551 12.26330 13 ft 19 kts 70°
2026-05-07 08:15 41.80598 12.26499 13 ft 18 kts 70°
2026-05-07 08:15 41.80645 12.26669 9 ft 19 kts 69°
2026-05-07 08:15 41.80692 12.26840 10 ft 19 kts 69°
2026-05-07 08:16 41.80736 12.27001 9 ft 18 kts 69°
2026-05-07 08:16 41.80796 12.27138 9 ft 16 kts 11°
2026-05-07 08:16 41.80903 12.27097 11 ft 14 kts 339°
2026-05-07 08:16 41.80985 12.27034 12 ft 11 kts 296°
2026-05-07 08:17 41.80975 12.26972 12 ft 7 kts 244°
2026-05-07 08:17 41.80946 12.26875 9 ft 28 kts 249°
2026-05-07 08:17 41.80747 12.26170 14 ft 129 kts 249°
2026-05-07 08:17 41.80344 12.24711 215 ft 193 kts 250°
2026-05-07 08:18 41.79925 12.23031 1437 ft 197 kts 251°
2026-05-07 08:18 41.79469 12.21154 2014 ft 238 kts 252°
2026-05-07 08:18 41.78983 12.19023 2631 ft 254 kts 253°
2026-05-07 08:18 41.78487 12.16709 2344 ft 256 kts 254°
2026-05-07 08:19 41.78045 12.14448 2322 ft 239 kts 255°
2026-05-07 08:19 41.77674 12.12343 2327 ft 230 kts 257°
2026-05-07 08:19 41.77346 12.10230 2331 ft 233 kts 259°
2026-05-07 08:19 41.77448 12.07980 2846 ft 255 kts 293°
2026-05-07 08:20 41.78511 12.06212 3951 ft 256 kts 325°
2026-05-07 08:20 41.80241 12.05440 4802 ft 269 kts 356°
2026-05-07 08:20 41.82119 12.05571 5755 ft 276 kts
2026-05-07 08:20 41.84026 12.05771 6753 ft 281 kts
2026-05-07 08:21 41.85961 12.05816 7743 ft 284 kts 358°
2026-05-07 08:21 41.87951 12.05747 8721 ft 289 kts 355°
2026-05-07 08:21 41.89951 12.05626 9686 ft 293 kts 354°
2026-05-07 08:21 41.92017 12.05489 10579 ft 300 kts 354°
2026-05-07 08:22 41.94156 12.05348 11205 ft 316 kts 354°
2026-05-07 08:22 41.96401 12.05208 11824 ft 331 kts 354°
2026-05-07 08:22 41.98751 12.05070 12417 ft 347 kts 354°
2026-05-07 08:22 42.01207 12.04929 12977 ft 362 kts 355°
2026-05-07 08:23 42.03757 12.04781 13492 ft 378 kts 354°
2026-05-07 08:23 42.06426 12.04619 14171 ft 389 kts 354°
2026-05-07 08:23 42.09164 12.04452 14949 ft 397 kts 354°
2026-05-07 08:23 42.11939 12.04287 15785 ft 401 kts 354°
2026-05-07 08:24 42.14736 12.04120 16572 ft 407 kts 354°
2026-05-07 08:24 42.17594 12.03942 17351 ft 412 kts 353°
2026-05-07 08:24 42.20448 12.03585 18074 ft 416 kts 349°
2026-05-07 08:24 42.23313 12.03024 18812 ft 420 kts 347°
2026-05-07 08:25 42.26225 12.02348 19552 ft 424 kts 346°
2026-05-07 08:25 42.29139 12.01640 20236 ft 429 kts 346°
2026-05-07 08:25 42.32087 12.00925 20871 ft 435 kts 346°
2026-05-07 08:25 42.35081 12.00210 21517 ft 440 kts 346°
2026-05-07 08:26 42.41185 11.98786 22744 ft 449 kts 346°
2026-05-07 08:26 42.44279 11.98077 23332 ft 454 kts 346°
2026-05-07 08:26 42.47425 11.97359 23936 ft 458 kts 345°
2026-05-07 08:27 42.50567 11.96646 24577 ft 461 kts 345°
2026-05-07 08:27 42.53770 11.95920 25200 ft 465 kts 345°
2026-05-07 08:27 42.56958 11.95197 25780 ft 469 kts 345°
2026-05-07 08:27 42.60193 11.94464 26408 ft 472 kts 345°
2026-05-07 08:28 42.63413 11.93733 26945 ft 476 kts 345°
2026-05-07 08:28 42.66705 11.92985 27529 ft 479 kts 345°
2026-05-07 08:28 42.69999 11.92235 28069 ft 483 kts 345°
2026-05-07 08:28 42.73334 11.91476 28652 ft 486 kts 344°
2026-05-07 08:29 42.76674 11.90690 29197 ft 487 kts 343°
2026-05-07 08:29 42.79971 11.89748 30188 ft 476 kts 340°
2026-05-07 08:29 42.83087 11.88542 31091 ft 464 kts 334°
2026-05-07 08:29 42.86097 11.86977 31829 ft 456 kts 329°
2026-05-07 08:30 42.88985 11.85177 32476 ft 451 kts 326°
2026-05-07 08:30 42.91815 11.83233 33076 ft 448 kts 324°
2026-05-07 08:30 42.94545 11.81264 33711 ft 445 kts 323°
2026-05-07 08:30 42.97261 11.79262 34018 ft 448 kts 323°
2026-05-07 08:31 43.02737 11.75182 34014 ft 444 kts 323°
2026-05-07 08:31 43.08188 11.71131 34010 ft 445 kts 323°
2026-05-07 08:32 43.13649 11.67084 34016 ft 448 kts 323°
2026-05-07 08:32 43.19127 11.63034 33999 ft 447 kts 323°
2026-05-07 08:33 43.24624 11.58968 33997 ft 446 kts 323°
2026-05-07 08:33 43.30098 11.54919 34002 ft 448 kts 323°
2026-05-07 08:34 43.35591 11.50848 33999 ft 449 kts 323°
2026-05-07 08:34 43.41036 11.46809 33988 ft 446 kts 323°
2026-05-07 08:35 43.46601 11.42856 33994 ft 454 kts 329°
2026-05-07 08:35 43.49622 11.41534 34008 ft 466 kts 340°
2026-05-07 08:35 43.52875 11.40795 33998 ft 474 kts 346°
2026-05-07 08:36 43.59461 11.40090 34005 ft 475 kts 350°
2026-05-07 08:36 43.66116 11.39637 34008 ft 480 kts 350°
2026-05-07 08:37 43.72735 11.39149 34000 ft 476 kts 350°
2026-05-07 08:37 43.79365 11.38586 34010 ft 477 kts 349°
2026-05-07 08:38 43.86011 11.37964 34002 ft 478 kts 349°
2026-05-07 08:38 43.92675 11.37312 34016 ft 478 kts 349°
2026-05-07 08:39 43.99301 11.36655 34018 ft 478 kts 349°
2026-05-07 08:39 44.05902 11.35994 34004 ft 477 kts 349°
2026-05-07 08:40 44.12561 11.35326 34002 ft 478 kts 349°
2026-05-07 08:40 44.19192 11.34660 34006 ft 477 kts 349°
2026-05-07 08:41 44.25806 11.33993 33983 ft 477 kts 348°
2026-05-07 08:41 44.32406 11.33326 33994 ft 479 kts 349°
2026-05-07 08:42 44.39019 11.32658 34004 ft 476 kts 349°
2026-05-07 08:42 44.45655 11.31986 33992 ft 477 kts 349°
2026-05-07 08:43 44.52273 11.31313 33990 ft 476 kts 349°
2026-05-07 08:43 44.58900 11.30639 33986 ft 476 kts 349°
2026-05-07 08:44 44.65500 11.29964 33989 ft 477 kts 349°
2026-05-07 08:44 44.72116 11.29289 33990 ft 475 kts 349°
2026-05-07 08:45 44.78709 11.28612 33982 ft 477 kts 349°
2026-05-07 08:45 44.85320 11.27931 33990 ft 477 kts 349°
2026-05-07 08:46 44.91947 11.27250 33979 ft 475 kts 349°
2026-05-07 08:46 44.98552 11.26568 33991 ft 476 kts 349°
2026-05-07 08:47 45.05158 11.25886 33983 ft 475 kts 349°
2026-05-07 08:47 45.11766 11.25199 33972 ft 475 kts 350°
2026-05-07 08:48 45.18326 11.24516 33983 ft 476 kts 349°
2026-05-07 08:48 45.24946 11.23826 33981 ft 476 kts 350°
2026-05-07 08:49 45.31572 11.23134 33980 ft 476 kts 350°
2026-05-07 08:49 45.38163 11.22442 33979 ft 478 kts 350°
2026-05-07 08:50 45.44809 11.21746 33973 ft 477 kts 350°
2026-05-07 08:50 45.51421 11.21051 33988 ft 477 kts 350°
2026-05-07 08:51 45.58083 11.20350 33982 ft 477 kts 350°
2026-05-07 08:51 45.64673 11.19653 33983 ft 477 kts 350°
2026-05-07 08:52 45.71310 11.18949 33983 ft 477 kts 351°
2026-05-07 08:52 45.77914 11.18246 33977 ft 479 kts 351°
2026-05-07 08:53 45.84577 11.17537 33991 ft 478 kts 351°
2026-05-07 08:53 45.91234 11.16828 33977 ft 479 kts 351°
2026-05-07 08:54 45.97865 11.16119 33979 ft 480 kts 351°
2026-05-07 08:54 46.04522 11.15405 33987 ft 479 kts 351°
2026-05-07 08:55 46.11195 11.14689 33992 ft 481 kts 351°
2026-05-07 08:55 46.17833 11.13974 33995 ft 478 kts 351°
2026-05-07 08:56 46.24459 11.13261 34004 ft 478 kts 351°
2026-05-07 08:56 46.31107 11.12541 33998 ft 478 kts 351°
2026-05-07 08:57 46.37697 11.11827 34002 ft 476 kts 351°
2026-05-07 08:57 46.44288 11.11111 33998 ft 476 kts 351°
2026-05-07 08:58 46.50924 11.10386 34007 ft 475 kts 351°
2026-05-07 08:58 46.57507 11.09665 34004 ft 477 kts 351°
2026-05-07 08:59 46.64153 11.08936 34010 ft 476 kts 352°
2026-05-07 08:59 46.70742 11.08213 33999 ft 476 kts 352°
2026-05-07 09:00 46.77371 11.07484 33979 ft 475 kts 352°
2026-05-07 09:00 46.83894 11.06559 33984 ft 473 kts 347°
2026-05-07 09:01 46.90181 11.04060 33994 ft 465 kts 335°
2026-05-07 09:01 46.96131 11.00362 34015 ft 462 kts 331°
2026-05-07 09:02 47.01939 10.96411 34027 ft 462 kts 330°
2026-05-07 09:02 47.07783 10.92430 34041 ft 461 kts 331°
2026-05-07 09:03 47.13605 10.88521 34055 ft 462 kts 331°
2026-05-07 09:03 47.19447 10.84633 34058 ft 461 kts 332°
2026-05-07 09:04 47.25274 10.80765 34057 ft 462 kts 332°
2026-05-07 09:04 47.31153 10.76863 34055 ft 461 kts 332°
2026-05-07 09:05 47.36976 10.72929 34051 ft 460 kts 329°
2026-05-07 09:05 47.42473 10.68185 34041 ft 456 kts 323°
2026-05-07 09:06 47.47710 10.62925 34040 ft 454 kts 321°
2026-05-07 09:06 47.52861 10.57564 34037 ft 455 kts 321°
2026-05-07 09:07 47.58019 10.52189 34032 ft 455 kts 322°
2026-05-07 09:07 47.63192 10.46819 34036 ft 454 kts 322°
2026-05-07 09:08 47.68372 10.41451 34031 ft 453 kts 322°
2026-05-07 09:08 47.73530 10.36104 34027 ft 453 kts 322°
2026-05-07 09:09 47.78585 10.30515 34028 ft 451 kts 318°
2026-05-07 09:09 47.83373 10.24586 34026 ft 450 kts 316°
2026-05-07 09:10 47.88144 10.18561 34029 ft 450 kts 317°
2026-05-07 09:10 47.92959 10.12525 34029 ft 451 kts 317°
2026-05-07 09:11 47.97769 10.06538 34029 ft 451 kts 317°
2026-05-07 09:11 48.02568 10.00581 34031 ft 451 kts 318°
2026-05-07 09:12 48.07407 9.94572 34032 ft 451 kts 318°
2026-05-07 09:12 48.12209 9.88598 34024 ft 449 kts 318°
2026-05-07 09:13 48.17010 9.82611 34033 ft 448 kts 318°
2026-05-07 09:13 48.21775 9.76653 34021 ft 447 kts 318°
2026-05-07 09:14 48.26556 9.70660 34016 ft 446 kts 318°
2026-05-07 09:14 48.31278 9.64726 34010 ft 447 kts 318°
2026-05-07 09:15 48.36058 9.58704 34004 ft 446 kts 318°
2026-05-07 09:15 48.40807 9.52705 33997 ft 445 kts 319°
2026-05-07 09:16 48.45551 9.46698 33983 ft 446 kts 319°
2026-05-07 09:16 48.50268 9.40709 33997 ft 446 kts 319°
2026-05-07 09:17 48.54986 9.34706 34000 ft 444 kts 318°
2026-05-07 09:17 48.59730 9.28655 34011 ft 445 kts 318°
2026-05-07 09:18 48.64208 9.22302 34013 ft 443 kts 312°
2026-05-07 09:18 48.68301 9.15391 34026 ft 442 kts 309°
2026-05-07 09:19 48.72322 9.08347 34007 ft 441 kts 310°
2026-05-07 09:19 48.76339 9.01341 34020 ft 443 kts 310°
2026-05-07 09:20 48.80406 8.94299 34000 ft 442 kts 310°
2026-05-07 09:20 48.84464 8.87295 34009 ft 442 kts 310°
2026-05-07 09:21 48.88490 8.80346 34006 ft 440 kts 311°
2026-05-07 09:21 48.92550 8.73325 34010 ft 441 kts 310°
2026-05-07 09:22 48.96584 8.66334 34002 ft 441 kts 310°
2026-05-07 09:22 49.00628 8.59307 34015 ft 440 kts 310°
2026-05-07 09:23 49.04637 8.52317 34004 ft 439 kts 310°
2026-05-07 09:23 49.08654 8.45296 34019 ft 440 kts 311°
2026-05-07 09:24 49.12672 8.38256 34006 ft 441 kts 311°
2026-05-07 09:24 49.16700 8.31180 34008 ft 441 kts 310°
2026-05-07 09:25 49.20723 8.24093 34013 ft 441 kts 310°
2026-05-07 09:25 49.24752 8.16976 34013 ft 441 kts 310°
2026-05-07 09:26 49.28742 8.09909 34013 ft 440 kts 310°
2026-05-07 09:26 49.32749 8.02792 34008 ft 442 kts 310°
2026-05-07 09:27 49.36747 7.95674 34000 ft 442 kts 310°
2026-05-07 09:28 49.42759 7.84932 34005 ft 441 kts 310°
2026-05-07 09:28 49.46735 7.77803 34007 ft 442 kts 310°
2026-05-07 09:29 49.50747 7.70590 34007 ft 441 kts 310°
2026-05-07 09:29 49.54720 7.63428 34009 ft 441 kts 310°
2026-05-07 09:30 49.58701 7.56231 34008 ft 441 kts 310°
2026-05-07 09:30 49.62670 7.49036 34010 ft 442 kts 310°
2026-05-07 09:31 49.66640 7.41819 34012 ft 442 kts 310°
2026-05-07 09:31 49.70620 7.34565 34021 ft 442 kts 310°
2026-05-07 09:32 49.74577 7.27332 34020 ft 442 kts 310°
2026-05-07 09:32 49.78527 7.20092 34018 ft 442 kts 310°
2026-05-07 09:33 49.82482 7.12823 34015 ft 441 kts 310°
2026-05-07 09:33 49.86423 7.05560 34012 ft 441 kts 310°
2026-05-07 09:34 49.90380 6.98246 34018 ft 442 kts 310°
2026-05-07 09:34 49.94315 6.90956 34022 ft 443 kts 310°
2026-05-07 09:35 49.98251 6.83642 34018 ft 441 kts 310°
2026-05-07 09:35 50.02181 6.76319 34019 ft 441 kts 310°
2026-05-07 09:36 50.06091 6.69011 34013 ft 440 kts 310°
2026-05-07 09:36 50.10002 6.61681 34016 ft 441 kts 310°
2026-05-07 09:37 50.13916 6.54324 34008 ft 440 kts 310°
2026-05-07 09:37 50.17817 6.46986 34008 ft 441 kts 311°
2026-05-07 09:38 50.21969 6.39902 34005 ft 441 kts 315°
2026-05-07 09:38 50.26286 6.33156 33999 ft 440 kts 315°
2026-05-07 09:39 50.30644 6.26419 34005 ft 441 kts 315°
2026-05-07 09:39 50.34986 6.19650 33997 ft 440 kts 315°
2026-05-07 09:40 50.39292 6.12878 34009 ft 440 kts 315°
2026-05-07 09:40 50.43586 6.06082 34004 ft 440 kts 315°
2026-05-07 09:41 50.47892 5.99237 34004 ft 439 kts 315°
2026-05-07 09:41 50.52183 5.92392 34010 ft 440 kts 315°
2026-05-07 09:42 50.56455 5.85559 34012 ft 440 kts 315°
2026-05-07 09:42 50.60732 5.78697 34028 ft 440 kts 315°
2026-05-07 09:43 50.65037 5.71836 34034 ft 440 kts 316°
2026-05-07 09:43 50.69950 5.66183 34040 ft 440 kts 335°
2026-05-07 09:44 50.75764 5.63038 34041 ft 442 kts 344°
2026-05-07 09:44 50.81701 5.60595 34039 ft 442 kts 346°
2026-05-07 09:45 50.87664 5.58223 34039 ft 441 kts 346°
2026-05-07 09:45 50.93617 5.55804 34039 ft 441 kts 345°
2026-05-07 09:46 50.99569 5.53328 34041 ft 441 kts 345°
2026-05-07 09:46 51.05519 5.50818 34039 ft 442 kts 345°
2026-05-07 09:47 51.11453 5.48294 34037 ft 443 kts 345°
2026-05-07 09:47 51.17392 5.45756 34037 ft 443 kts 345°
2026-05-07 09:48 51.23385 5.43187 34038 ft 444 kts 345°
2026-05-07 09:48 51.29335 5.40628 34042 ft 444 kts 345°
2026-05-07 09:49 51.35307 5.38054 34042 ft 444 kts 345°
2026-05-07 09:49 51.41302 5.35464 34046 ft 445 kts 345°
2026-05-07 09:50 51.47293 5.32866 34048 ft 445 kts 344°
2026-05-07 09:50 51.53278 5.30266 34049 ft 445 kts 344°
2026-05-07 09:51 51.59244 5.27666 34049 ft 445 kts 344°
2026-05-07 09:51 51.65204 5.25063 34051 ft 445 kts 344°
2026-05-07 09:52 51.71212 5.22430 34049 ft 446 kts 343°
2026-05-07 09:52 51.77224 5.19788 34049 ft 446 kts 344°
2026-05-07 09:53 51.83193 5.17157 34049 ft 447 kts 344°
2026-05-07 09:53 51.89180 5.14512 34048 ft 447 kts 344°
2026-05-07 09:54 51.95181 5.11855 34048 ft 448 kts 343°
2026-05-07 09:54 52.01179 5.09191 34051 ft 447 kts 343°
2026-05-07 09:55 52.07191 5.06512 34054 ft 446 kts 343°
2026-05-07 09:55 52.13193 5.03831 34059 ft 446 kts 343°
2026-05-07 09:56 52.19151 5.01163 34061 ft 446 kts 343°
2026-05-07 09:56 52.25142 4.98473 34062 ft 447 kts 343°
2026-05-07 09:57 52.31125 4.95778 34067 ft 447 kts 343°
2026-05-07 09:57 52.37111 4.93074 34067 ft 446 kts 343°
2026-05-07 09:58 52.43057 4.90382 34069 ft 443 kts 343°
2026-05-07 09:58 52.49012 4.87677 34068 ft 441 kts 343°
2026-05-07 09:59 52.54828 4.84913 34069 ft 436 kts 342°
2026-05-07 09:59 52.60515 4.81301 34246 ft 442 kts 338°
2026-05-07 09:59 52.63356 4.79323 34374 ft 442 kts 338°
2026-05-07 10:00 52.66192 4.77324 34526 ft 442 kts 338°
2026-05-07 10:00 52.69017 4.75330 34677 ft 443 kts 338°
2026-05-07 10:00 52.71848 4.73342 34814 ft 443 kts 338°
2026-05-07 10:00 52.74665 4.71374 34946 ft 443 kts 339°
2026-05-07 10:01 52.77535 4.69378 35068 ft 443 kts 339°
2026-05-07 10:01 52.83202 4.65453 35089 ft 442 kts 339°
2026-05-07 10:02 52.88864 4.61536 35083 ft 441 kts 339°
2026-05-07 10:02 52.94499 4.57633 35087 ft 440 kts 339°
2026-05-07 10:03 53.00155 4.53705 35091 ft 439 kts 339°
2026-05-07 10:03 53.05791 4.49782 35093 ft 440 kts 339°
2026-05-07 10:04 53.11446 4.45836 35090 ft 440 kts 339°
2026-05-07 10:04 53.17072 4.41898 35091 ft 441 kts 339°
2026-05-07 10:05 53.22707 4.37942 35095 ft 441 kts 339°
2026-05-07 10:05 53.28360 4.33961 35098 ft 439 kts 338°
2026-05-07 10:06 53.34001 4.29977 35098 ft 439 kts 339°
2026-05-07 10:06 53.39602 4.26011 35096 ft 440 kts 339°
2026-05-07 10:07 53.45258 4.21993 35100 ft 440 kts 339°
2026-05-07 10:07 53.50866 4.18000 35100 ft 439 kts 339°
2026-05-07 10:08 53.56470 4.13997 35101 ft 438 kts 339°
2026-05-07 10:08 53.62074 4.09984 35101 ft 439 kts 339°
2026-05-07 10:09 53.67679 4.05958 35102 ft 439 kts 339°
2026-05-07 10:09 53.73324 4.01890 35105 ft 439 kts 339°
2026-05-07 10:10 53.78900 3.97860 35110 ft 442 kts 339°
2026-05-07 10:10 53.84641 3.93704 35108 ft 451 kts 339°
2026-05-07 10:11 53.90375 3.89533 35108 ft 448 kts 339°
2026-05-07 10:11 53.96141 3.85328 35111 ft 450 kts 339°
2026-05-07 10:12 54.01865 3.81142 35111 ft 450 kts 339°
2026-05-07 10:12 54.07617 3.76923 35108 ft 450 kts 339°
2026-05-07 10:13 54.13269 3.72764 35111 ft 450 kts 339°
2026-05-07 10:13 54.18994 3.68540 35107 ft 449 kts 338°
2026-05-07 10:14 54.24714 3.64306 35109 ft 449 kts 338°
2026-05-07 10:14 54.30436 3.60058 35112 ft 448 kts 338°
2026-05-07 10:15 54.36147 3.55807 35112 ft 447 kts 338°
2026-05-07 10:15 54.41851 3.51547 35110 ft 448 kts 338°
2026-05-07 10:16 54.47564 3.47268 35106 ft 448 kts 338°
2026-05-07 10:16 54.53261 3.42987 35113 ft 447 kts 338°
2026-05-07 10:17 54.58961 3.38690 35107 ft 446 kts 338°
2026-05-07 10:17 54.64636 3.34400 35109 ft 447 kts 337°
2026-05-07 10:18 54.70312 3.30096 35110 ft 447 kts 337°
2026-05-07 10:18 54.75969 3.25793 35109 ft 447 kts 336°
2026-05-07 10:19 54.81681 3.21435 35110 ft 449 kts 336°
2026-05-07 10:19 54.87397 3.17060 35109 ft 448 kts 336°
2026-05-07 10:20 54.93100 3.12682 35109 ft 449 kts 336°
2026-05-07 10:20 54.98806 3.08288 35110 ft 447 kts 336°
2026-05-07 10:21 55.04471 3.03912 35112 ft 446 kts 336°
2026-05-07 10:21 55.10144 2.99516 35112 ft 448 kts 336°
2026-05-07 10:22 55.15837 2.95091 35111 ft 448 kts 336°
2026-05-07 10:22 55.21506 2.90670 35112 ft 448 kts 336°
2026-05-07 10:23 55.27186 2.86227 35111 ft 447 kts 336°
2026-05-07 10:23 55.32868 2.81770 35111 ft 448 kts 336°
2026-05-07 10:24 55.38552 2.77296 35111 ft 447 kts 336°
2026-05-07 10:24 55.44192 2.72843 35112 ft 447 kts 336°
2026-05-07 10:25 55.49845 2.68366 35112 ft 446 kts 335°
2026-05-07 10:25 55.55505 2.63870 35112 ft 447 kts 335°
2026-05-07 10:26 55.61148 2.59373 35112 ft 445 kts 335°
2026-05-07 10:26 55.66784 2.54867 35112 ft 446 kts 335°
2026-05-07 10:27 55.72445 2.50326 35111 ft 446 kts 335°
2026-05-07 10:27 55.78062 2.45806 35111 ft 445 kts 335°
2026-05-07 10:28 55.83692 2.41262 35111 ft 445 kts 335°
2026-05-07 10:28 55.89336 2.36692 35111 ft 446 kts 335°
2026-05-07 10:29 55.94956 2.32126 35112 ft 445 kts 334°
2026-05-07 10:29 56.00589 2.27535 35111 ft 446 kts 334°
2026-05-07 10:30 56.09037 2.20624 35111 ft 445 kts 334°
2026-05-07 10:30 56.14668 2.16000 35111 ft 445 kts 333°
2026-05-07 10:31 56.20268 2.11384 35112 ft 444 kts 333°
2026-05-07 10:31 56.25867 2.06754 35111 ft 444 kts 333°
2026-05-07 10:32 56.31473 2.02104 35111 ft 443 kts 333°
2026-05-07 10:32 56.37079 1.97440 35110 ft 444 kts 333°
2026-05-07 10:33 56.42679 1.92766 35105 ft 444 kts 333°
2026-05-07 10:33 56.48242 1.88107 35104 ft 444 kts 333°
2026-05-07 10:34 56.53847 1.83397 35102 ft 443 kts 333°
2026-05-07 10:34 56.59420 1.78697 35104 ft 443 kts 333°
2026-05-07 10:35 56.64999 1.73980 35104 ft 443 kts 333°
2026-05-07 10:35 56.70571 1.69251 35098 ft 442 kts 333°
2026-05-07 10:36 56.76116 1.64528 35097 ft 443 kts 333°
2026-05-07 10:36 56.81691 1.59765 35092 ft 443 kts 332°
2026-05-07 10:37 56.87263 1.54989 35097 ft 443 kts 332°
2026-05-07 10:37 56.92845 1.50191 35086 ft 443 kts 332°
2026-05-07 10:38 56.98411 1.45389 35086 ft 443 kts 332°
2026-05-07 10:38 57.03985 1.40565 35089 ft 442 kts 332°
2026-05-07 10:39 57.09509 1.35767 35083 ft 442 kts 332°
2026-05-07 10:39 57.15062 1.30930 35081 ft 441 kts 331°
2026-05-07 10:40 57.20599 1.26090 35076 ft 441 kts 330°
2026-05-07 10:40 57.26135 1.21234 35078 ft 442 kts 331°
2026-05-07 10:41 57.31702 1.16336 35076 ft 442 kts 330°
2026-05-07 10:41 57.37238 1.11449 35073 ft 441 kts 330°
2026-05-07 10:42 57.42743 1.06571 35070 ft 441 kts 330°
2026-05-07 10:42 57.48281 1.01647 35070 ft 440 kts 330°
2026-05-07 10:43 57.53764 0.96757 35068 ft 441 kts 330°
2026-05-07 10:43 57.59288 0.91809 35069 ft 441 kts 330°
2026-05-07 10:44 57.64801 0.86858 35068 ft 441 kts 330°
2026-05-07 10:44 57.70319 0.81886 35065 ft 441 kts 330°
2026-05-07 10:45 57.75856 0.76879 35061 ft 441 kts 330°
2026-05-07 10:45 57.81360 0.71887 35058 ft 440 kts 329°
2026-05-07 10:46 57.86850 0.66890 35060 ft 441 kts 329°
2026-05-07 10:46 57.92352 0.61864 35057 ft 441 kts 329°
2026-05-07 10:47 57.97880 0.56797 35055 ft 442 kts 329°
2026-05-07 10:47 58.03402 0.51721 35048 ft 440 kts 329°
2026-05-07 10:48 58.08872 0.46674 35048 ft 441 kts 329°
2026-05-07 10:48 58.14404 0.41553 35044 ft 440 kts 329°
2026-05-07 10:49 58.19870 0.36474 35041 ft 442 kts 329°
2026-05-07 10:49 58.25391 0.31324 35036 ft 441 kts 328°
2026-05-07 10:50 58.30870 0.26198 35035 ft 439 kts 328°
2026-05-07 10:50 58.36347 0.21057 35032 ft 440 kts 328°
2026-05-07 10:51 58.41822 0.15901 35031 ft 440 kts 327°
2026-05-07 10:51 58.47322 0.10700 35027 ft 439 kts 327°
2026-05-07 10:52 58.52771 0.05530 35022 ft 440 kts 327°
2026-05-07 10:52 58.58237 0.00330 35018 ft 438 kts 327°
2026-05-07 10:53 58.63666 -0.04854 35012 ft 438 kts 327°
2026-05-07 10:53 58.69109 -0.10069 35013 ft 437 kts 327°
2026-05-07 10:54 58.74575 -0.15329 35007 ft 439 kts 327°
2026-05-07 10:54 58.80014 -0.20580 35004 ft 439 kts 327°
2026-05-07 10:55 58.85461 -0.25850 35001 ft 439 kts 327°
2026-05-07 10:55 58.90904 -0.31133 35002 ft 438 kts 326°
2026-05-07 10:56 58.96344 -0.36437 35001 ft 440 kts 326°
2026-05-07 10:56 59.01801 -0.41774 35000 ft 437 kts 326°
2026-05-07 10:57 59.07217 -0.47094 35000 ft 437 kts 326°
2026-05-07 10:57 59.12602 -0.52403 34997 ft 437 kts 326°
2026-05-07 10:58 59.18017 -0.57768 34995 ft 439 kts 326°
2026-05-07 10:58 59.23441 -0.63157 34991 ft 438 kts 326°
2026-05-07 10:59 59.28886 -0.68586 34989 ft 435 kts 325°
2026-05-07 10:59 59.34287 -0.73984 34988 ft 438 kts 324°
2026-05-07 11:00 59.39688 -0.79402 34986 ft 436 kts 324°
2026-05-07 11:00 59.45106 -0.84856 34984 ft 437 kts 324°
2026-05-07 11:01 59.50493 -0.90300 34981 ft 438 kts 324°
2026-05-07 11:01 59.55880 -0.95767 34978 ft 437 kts 324°
2026-05-07 11:02 59.61282 -1.01272 34971 ft 439 kts 324°
2026-05-07 11:02 59.66705 -1.06814 34976 ft 438 kts 324°
2026-05-07 11:03 59.72091 -1.12336 34972 ft 439 kts 324°
2026-05-07 11:03 59.77520 -1.17923 34968 ft 437 kts 324°
2026-05-07 11:04 59.82923 -1.23515 34968 ft 439 kts 323°
2026-05-07 11:04 59.87929 -1.29930 34965 ft 424 kts 311°
2026-05-07 11:05 59.91919 -1.38351 34965 ft 416 kts 301°
2026-05-07 11:05 59.95493 -1.47361 34961 ft 410 kts 301°
2026-05-07 11:06 59.99015 -1.56293 34957 ft 413 kts 301°
2026-05-07 11:06 60.02584 -1.65326 34926 ft 415 kts 300°
2026-05-07 11:07 60.06155 -1.74340 34947 ft 414 kts 300°
2026-05-07 11:07 60.09709 -1.83337 34938 ft 413 kts 300°
2026-05-07 11:08 60.13261 -1.92365 34929 ft 414 kts 300°
2026-05-07 11:08 60.16844 -2.01510 34906 ft 416 kts 300°
2026-05-07 11:09 60.20383 -2.10568 34896 ft 415 kts 300°
2026-05-07 11:09 60.23929 -2.19689 34892 ft 415 kts 300°
2026-05-07 11:10 60.27485 -2.28873 34911 ft 418 kts 300°
2026-05-07 11:10 60.31043 -2.38093 34892 ft 420 kts 300°
2026-05-07 11:11 60.34616 -2.47381 34892 ft 416 kts 300°
2026-05-07 11:11 60.38166 -2.56659 34901 ft 420 kts 300°
2026-05-07 11:12 60.41737 -2.66018 34911 ft 418 kts 299°
2026-05-07 11:12 60.45272 -2.75330 34885 ft 419 kts 299°
2026-05-07 11:13 60.48817 -2.84694 34882 ft 418 kts 299°
2026-05-07 11:13 60.52372 -2.94146 34879 ft 424 kts 299°
2026-05-07 11:14 60.55903 -3.03544 34859 ft 419 kts 299°
2026-05-07 11:14 60.59452 -3.13040 34873 ft 424 kts 300°
2026-05-07 11:15 60.63007 -3.22591 34859 ft 424 kts 300°
2026-05-07 11:15 60.66579 -3.32225 34849 ft 423 kts 300°
2026-05-07 11:16 60.70110 -3.41793 34850 ft 426 kts 300°
2026-05-07 11:16 60.73661 -3.51457 34849 ft 425 kts 300°
2026-05-07 11:17 60.77231 -3.61210 34837 ft 429 kts 300°
2026-05-07 11:17 60.80756 -3.70867 34837 ft 426 kts 299°
2026-05-07 11:18 60.84307 -3.80659 34818 ft 429 kts 300°
2026-05-07 11:18 60.87873 -3.90529 34859 ft 432 kts 300°
2026-05-07 11:19 60.91419 -4.00372 34831 ft 433 kts 300°
2026-05-07 11:19 60.94978 -4.10307 34827 ft 433 kts 300°
2026-05-07 11:20 60.98542 -4.20296 34830 ft 433 kts 300°
2026-05-07 11:20 61.02109 -4.30327 34832 ft 433 kts 300°
2026-05-07 11:21 61.05644 -4.40318 34820 ft 435 kts 300°
2026-05-07 11:21 61.09194 -4.50392 34820 ft 434 kts 300°
2026-05-07 11:22 61.12739 -4.60496 34821 ft 436 kts 300°
2026-05-07 11:22 61.16270 -4.70600 34810 ft 435 kts 299°
2026-05-07 11:23 61.19815 -4.80794 34813 ft 437 kts 300°
2026-05-07 11:23 61.23345 -4.90995 34819 ft 437 kts 300°
2026-05-07 11:24 61.26857 -5.01176 34795 ft 435 kts 300°
2026-05-07 11:24 61.30394 -5.11489 34806 ft 437 kts 300°
2026-05-07 11:25 61.33910 -5.21775 34804 ft 436 kts 300°
2026-05-07 11:25 61.37423 -5.32109 34804 ft 438 kts 300°
2026-05-07 11:26 61.40927 -5.42456 34804 ft 439 kts 300°
2026-05-07 11:26 61.42680 -5.47651 34687 ft 439 kts 300°
2026-05-07 11:26 61.44419 -5.52812 34244 ft 436 kts 300°
2026-05-07 11:27 61.46149 -5.57938 34041 ft 424 kts 300°
2026-05-07 11:27 61.47820 -5.62898 33667 ft 419 kts 299°
2026-05-07 11:27 61.49494 -5.67890 33099 ft 419 kts 298°
2026-05-07 11:27 61.51150 -5.72856 32478 ft 421 kts 297°
2026-05-07 11:28 61.52819 -5.77882 31828 ft 423 kts 297°
2026-05-07 11:28 61.54494 -5.82933 31333 ft 419 kts 297°
2026-05-07 11:28 61.56146 -5.87917 30805 ft 415 kts 296°
2026-05-07 11:28 61.57776 -5.92842 30256 ft 410 kts 297°
2026-05-07 11:29 61.59372 -5.97678 29633 ft 407 kts 297°
2026-05-07 11:29 61.60981 -6.02568 28991 ft 405 kts 297°
2026-05-07 11:29 61.62564 -6.07394 28313 ft 404 kts 297°
2026-05-07 11:29 61.64132 -6.12180 27725 ft 401 kts 297°
2026-05-07 11:30 61.65721 -6.17037 27120 ft 397 kts 297°
2026-05-07 11:30 61.67256 -6.21735 26562 ft 394 kts 297°
2026-05-07 11:30 61.68796 -6.26459 25948 ft 391 kts 297°
2026-05-07 11:30 61.70325 -6.31166 25323 ft 389 kts 297°
2026-05-07 11:31 61.71842 -6.35842 24728 ft 386 kts 297°
2026-05-07 11:31 61.73362 -6.40537 24070 ft 385 kts 298°
2026-05-07 11:31 61.74838 -6.45092 23670 ft 377 kts 298°
2026-05-07 11:31 61.76326 -6.49688 23145 ft 373 kts 298°
2026-05-07 11:32 61.79218 -6.58670 21681 ft 377 kts 299°
2026-05-07 11:32 61.80700 -6.63312 20888 ft 379 kts 299°
2026-05-07 11:32 61.82164 -6.67892 20272 ft 377 kts 299°
2026-05-07 11:33 61.83624 -6.72461 19695 ft 373 kts 300°
2026-05-07 11:33 61.85061 -6.76941 19292 ft 365 kts 300°
2026-05-07 11:33 61.86472 -6.81355 18738 ft 362 kts 300°
2026-05-07 11:33 61.87859 -6.85738 18039 ft 363 kts 300°
2026-05-07 11:34 61.89270 -6.90211 17345 ft 363 kts 300°
2026-05-07 11:34 61.90671 -6.94653 16660 ft 362 kts 300°
2026-05-07 11:34 61.92045 -6.99010 16027 ft 360 kts 300°
2026-05-07 11:34 61.93441 -7.03436 15409 ft 358 kts 300°
2026-05-07 11:35 61.94820 -7.07807 15059 ft 354 kts 300°
2026-05-07 11:35 61.96193 -7.12174 14790 ft 358 kts 300°
2026-05-07 11:35 61.97561 -7.16528 14531 ft 358 kts 300°
2026-05-07 11:35 61.98941 -7.20933 14270 ft 357 kts 300°
2026-05-07 11:36 62.00311 -7.25327 14008 ft 356 kts 300°
2026-05-07 11:36 62.01682 -7.29743 13745 ft 359 kts 301°
2026-05-07 11:36 62.03040 -7.34133 13495 ft 358 kts 301°
2026-05-07 11:36 62.04407 -7.38544 13237 ft 356 kts 300°
2026-05-07 11:37 62.05765 -7.42948 12976 ft 355 kts 302°
2026-05-07 11:37 62.07116 -7.47298 12715 ft 353 kts 301°
2026-05-07 11:37 62.08457 -7.51660 12452 ft 348 kts 301°
2026-05-07 11:37 62.09771 -7.55915 12255 ft 335 kts 302°
2026-05-07 11:38 62.11037 -7.59884 12252 ft 321 kts 307°
2026-05-07 11:38 62.12584 -7.63249 12264 ft 313 kts 321°
2026-05-07 11:38 62.14299 -7.65972 12229 ft 302 kts 324°
2026-05-07 11:38 62.16040 -7.68582 11730 ft 303 kts 324°
2026-05-07 11:39 62.17659 -7.71385 11026 ft 313 kts 312°
2026-05-07 11:39 62.18754 -7.75466 10081 ft 323 kts 281°
2026-05-07 11:39 62.18758 -7.80095 9946 ft 300 kts 252°
2026-05-07 11:39 62.17975 -7.84013 9955 ft 274 kts 231°
2026-05-07 11:40 62.16814 -7.87019 9952 ft 253 kts 217°
2026-05-07 11:40 62.15499 -7.89418 9787 ft 247 kts 208°
2026-05-07 11:40 62.14003 -7.90985 9290 ft 243 kts 188°
2026-05-07 11:40 62.12322 -7.91240 8702 ft 243 kts 170°
2026-05-07 11:41 62.10662 -7.90567 8113 ft 247 kts 160°
2026-05-07 11:41 62.09080 -7.89180 7502 ft 249 kts 144°
2026-05-07 11:41 62.07834 -7.86700 6957 ft 248 kts 125°
2026-05-07 11:41 62.07008 -7.83490 6349 ft 243 kts 112°
2026-05-07 11:42 62.06542 -7.80152 5807 ft 235 kts 102°
2026-05-07 11:42 62.06173 -7.76857 5504 ft 225 kts 111°
2026-05-07 11:42 62.05302 -7.74094 4737 ft 232 kts 137°
2026-05-07 11:42 62.03834 -7.72686 4210 ft 237 kts 165°
2026-05-07 11:43 62.02193 -7.73134 3894 ft 242 kts 196°
2026-05-07 11:43 62.00920 -7.75336 3911 ft 236 kts 229°
2026-05-07 11:43 62.00386 -7.78539 3929 ft 228 kts 266°
2026-05-07 11:43 62.00725 -7.81763 3926 ft 225 kts 303°
2026-05-07 11:44 62.01762 -7.84042 3928 ft 212 kts 335°
2026-05-07 11:44 62.03068 -7.85044 3913 ft 186 kts 13°
2026-05-07 11:44 62.04084 -7.84130 3913 ft 144 kts 62°
2026-05-07 11:44 62.04363 -7.82230 3934 ft 134 kts 83°
2026-05-07 11:45 62.04675 -7.80322 3930 ft 138 kts 71°
2026-05-07 11:45 62.05125 -7.78477 3933 ft 139 kts 70°
2026-05-07 11:45 62.05564 -7.76624 3939 ft 138 kts 70°
2026-05-07 11:45 62.06007 -7.74815 3947 ft 141 kts 69°
2026-05-07 11:46 62.06517 -7.73002 3940 ft 142 kts 66°
2026-05-07 11:46 62.07115 -7.71292 3944 ft 145 kts 57°
2026-05-07 11:46 62.07825 -7.69758 3952 ft 144 kts 59°
2026-05-07 11:46 62.08379 -7.68010 3955 ft 140 kts 68°
2026-05-07 11:47 62.08847 -7.66207 3953 ft 139 kts 68°
2026-05-07 11:47 62.09324 -7.64390 3955 ft 140 kts 68°
2026-05-07 11:47 62.09801 -7.62548 3954 ft 140 kts 70°
2026-05-07 11:47 62.10235 -7.60707 3942 ft 140 kts 72°
2026-05-07 11:48 62.10546 -7.58771 3813 ft 135 kts 86°
2026-05-07 11:48 62.10491 -7.56764 3515 ft 137 kts 100°
2026-05-07 11:48 62.10275 -7.54800 3207 ft 137 kts 102°
2026-05-07 11:48 62.10029 -7.52850 2948 ft 132 kts 102°
2026-05-07 11:49 62.09787 -7.50993 2737 ft 128 kts 103°
2026-05-07 11:49 62.09548 -7.49190 2538 ft 129 kts 102°
2026-05-07 11:49 62.09303 -7.47355 2330 ft 126 kts 102°
2026-05-07 11:49 62.09062 -7.45554 2124 ft 128 kts 102°
2026-05-07 11:50 62.08822 -7.43752 1900 ft 123 kts 101°
2026-05-07 11:50 62.08595 -7.42027 1677 ft 119 kts 101°
2026-05-07 11:50 62.08376 -7.40357 1351 ft 115 kts 100°
2026-05-07 11:50 62.08178 -7.38742 1047 ft 112 kts 99°
2026-05-07 11:51 62.07978 -7.37138 642 ft 114 kts 99°
2026-05-07 11:51 62.07785 -7.35594 466 ft 106 kts 97°
2026-05-07 11:51 62.07709 -7.34067 554 ft 106 kts 94°
2026-05-07 11:51 62.07473 -7.32501 613 ft 115 kts 110°
2026-05-07 11:52 62.07116 -7.31001 496 ft 114 kts 105°
2026-05-07 11:52 62.06786 -7.29515 326 ft 109 kts 107°
2026-05-07 11:52 62.06466 -7.28153 294 ft 80 kts 115°
2026-05-07 11:52 62.06346 -7.27640 294 ft 19 kts 117°
2026-05-07 11:53 62.06288 -7.27413 294 ft 20 kts 121°
2026-05-07 11:53 62.06181 -7.26987 294 ft 37 kts 119°
2026-05-07 11:53 62.06105 -7.26792 294 ft 5 kts 102°
2026-05-07 11:53 62.06124 -7.26782 294 ft 3 kts 307°
2026-05-07 11:54 62.06171 -7.26982 294 ft 25 kts 299°
2026-05-07 11:54 62.06263 -7.27340 294 ft 27 kts 300°
2026-05-07 11:54 62.06354 -7.27701 294 ft 27 kts 298°
2026-05-07 11:54 62.06433 -7.28020 294 ft 14 kts 298°
2026-05-07 11:55 62.06479 -7.28132 294 ft 8 kts 356°
2026-05-07 11:55 62.06533 -7.28098 294 ft 9 kts 23°
2026-05-07 11:55 62.06587 -7.28072 294 ft 6 kts
2026-05-07 11:55 62.06619 -7.28072 294 ft 3 kts
2026-05-07 11:56 62.06644 -7.28050 294 ft 3 kts 41°
2026-05-07 11:56 62.06643 -7.27969 294 ft 6 kts 105°
2026-05-07 11:56 62.06632 -7.27899 294 ft 1 kts 103°
2026-05-07 11:56 62.06639 -7.27874 294 ft 2 kts 30°
2026-05-07 11:57 62.06655 -7.27855 294 ft 4 kts 32°
2026-05-07 11:57 62.06668 -7.27838 294 ft 0 kts 31°